AGROMETEOROLOŠKI PORTAL

Vinorodna pokrajina

Temelj dobrega kmetovanja.

Pregled podatkov za lokacijo Sužid, meteorološka postaja 516312

Pregled senzorjev na lokaciji

ID Ime Zadnja
vrednost
Datum in čas
meritve
(lokalni čas)
Tip
senzorja
6994 Omočenost lista (1,5 m) (U) 2 U 23.2.2024 20:00 A730WET
6995 Padavine (mm) 1 mm 23.2.2024 20:00 Generic 0.2 mm
6993 Relativna zračna vlaga (2 m) (%RH) 100 %RH 23.2.2024 20:00 50YA
6992 Temperatura (2 m) (°C) 7,5 °C 23.2.2024 20:00 50YA

Pregled podatkov zadnjih 24 ur

Zap.
št.
Datum in čas
(lokalni čas)
Sužid
Omočenost
lista
(1,5
m)
Padavine Relativna
zračna
vlaga
(2
m)
Temperatura
(2
m)
1 23.2.2024 20:00 2 1 99,9 7,5
2 23.2.2024 19:30 2 1,8 99,9 7,5
3 23.2.2024 19:00 2 4,8 99,9 7,4
4 23.2.2024 18:30 3 5,8 99,9 7,5
5 23.2.2024 18:00 5 4,6 99,9 6,9
6 23.2.2024 17:30 9 5,6 99,9 6,7
7 23.2.2024 17:00 10 8,6 99,9 6,4
8 23.2.2024 16:30 10 6,6 99,9 6,3
9 23.2.2024 16:00 10 9,6 99,9 6,4
10 23.2.2024 15:30 9 8,6 99,9 6,6
11 23.2.2024 15:00 10 8,2 99,9 6,3
12 23.2.2024 14:30 10 6 99,9 6,5
13 23.2.2024 14:00 10 6,4 99,9 6,5
14 23.2.2024 13:30 10 5,8 99,9 6,6
15 23.2.2024 13:00 9 4,6 99,9 6,7
16 23.2.2024 12:30 9 4,8 99,9 6,7
17 23.2.2024 12:00 7 4,4 99,9 6,8
18 23.2.2024 11:30 6 4,8 99,9 6,8
19 23.2.2024 11:00 7 4 99,9 6,7
20 23.2.2024 10:30 6 4,8 99,9 6,7
21 23.2.2024 10:00 9 4,2 99,9 6,7
22 23.2.2024 09:30 9 3,4 99,9 6,6
23 23.2.2024 09:00 9 1,8 99,9 6,5
24 23.2.2024 08:30 9 2,4 99,9 6,7
25 23.2.2024 08:00 9 4,4 99,9 6,7
26 23.2.2024 07:30 6 5 99,9 6,6
27 23.2.2024 07:00 6 5 99,9 6,7
28 23.2.2024 06:30 4 3,4 99,9 6,7
29 23.2.2024 06:00 3 3,4 99,9 6,7
30 23.2.2024 05:30 3 2,6 99,9 6,7
31 23.2.2024 05:00 3 2 99,9 6,7
32 23.2.2024 04:30 2 1,4 99,9 6,9
33 23.2.2024 04:00 3 2,2 99,9 7
34 23.2.2024 03:30 3 3 99,9 7,1
35 23.2.2024 03:00 2 2,2 99,8 7,2
36 23.2.2024 02:30 2 2 96,7 7,7
37 23.2.2024 02:00 3 1,6 90 8,3
38 23.2.2024 01:30 3 1,8 91,3 8,4
39 23.2.2024 01:00 4 2,4 96 8,1
40 23.2.2024 00:30 3 2,2 99,9 7,1
41 23.2.2024 00:00 3 2,8 99,9 7
42 22.2.2024 23:30 4 2,6 99,9 6,8
43 22.2.2024 23:00 4 2,4 99,9 6,7
44 22.2.2024 22:30 4 1,8 99,9 6,7
45 22.2.2024 22:00 5 2 99,9 6,7
46 22.2.2024 21:30 6 1,8 99,9 6,6
47 22.2.2024 21:00 9 0,8 99,9 6,5
48 22.2.2024 20:30 9 0,8 99,9 6,6